Location: Peebles
(55.6412°N, 3.1714°W)
Time: 20:12:53
(UTC+01:00)

Vanguard 2 - Visible Passes

Search period start: 02 October 2022 00:00
Search period end: 12 October 2022 00:00
Orbit: 552 x 2935 km, 32.9° (Epoch: 02 October)

Date Brightness Start Highest point End Pass type
(mag) Time Alt. Az. Time Alt. Az. Time Alt. Az.
02 Oct 11.8 20:07:49 10° WSW 20:17:22 18° SW 20:26:52 10° S visible
03 Oct 11.9 20:26:38 10° WSW 20:33:41 14° SW 20:40:44 10° SSW visible
05 Oct 11.9 18:48:22 10° WSW 18:58:14 20° SSW 19:08:53 10° S visible
06 Oct 12.0 19:06:35 10° WSW 19:14:42 16° SSW 19:23:21 10° S visible
07 Oct 12.2 19:26:09 10° SW 19:31:07 12° SW 19:36:18 10° SSW visible
